Regional Weather Roundup
Issued by NWS

Home | Current Version | Previous Version | Text Only | Print | Product List | Glossary On
Versions: 1 2 3 4 5 6 7 8 9 10 11 12 13 14 15 16 17 18 19 20 21 22 23 24 25 26 27 28 29 30 31 32 33 34 35 36 37 38 39 40 41 42 43 44 45 46 47 48 49 50
000
ASUS43 KDTX 112101
RWRMI
MICHIGAN HOURLY REGIONAL WEATHER ROUNDUP
NATIONAL WEATHER SERVICE DETROIT/PONTIAC MI
500 PM EDT FRI JUL 11 2014

NOTE: "FAIR" INDICATES FEW OR NO CLOUDS BELOW 12,000 FEET WITH NO
SIGNIFICANT WEATHER AND/OR OBSTRUCTION TO VISIBILITY.

MIZ047>049-052>055-059>063-066>070-074>076-081>083-112200-
SOUTHEAST LOWER MICHIGAN

CITY           SKY/WX    TMP DP  RH WIND       PRES   REMARKS
ADRIAN         MOSUNNY   80  57  45 S9        30.18F
ALMA           PTSUNNY   78  50  38 SW6       30.17F
ANN ARBOR      MOSUNNY   78  57  48 SE5       30.18F
BAD AXE        PTSUNNY   77  55  46 SW10      30.18F
CARO           PTSUNNY   80  58  46 SW8       30.17S
DETROIT CITY   SUNNY     80  57  45 SE5       30.19F
DETROIT        PTSUNNY   78  55  44 SE3       30.19F
FLINT          PTSUNNY   80  56  43 SW8       30.18F
GROSSE ILE     SUNNY     75  61  60 S8        30.19S
HILLSDALE      MOSUNNY   79  56  46 CALM      30.19F
HOWELL         PTSUNNY   76  56  49 S8        30.19S

CITY           SKY/WX    TMP DP  RH WIND       PRES   REMARKS
JACKSON        PTSUNNY   79  56  45 SE7       30.18F
LAMBERTVILLE   SUNNY     79  55  44 E7        30.18F
LANSING        PTSUNNY   78  56  46 S9        30.17F
LAPEER         FAIR      78  54  43 SW7       30.19S
MASON          PTSUNNY   76  58  52 S7        30.18F
MONROE         SUNNY     77  55  47 E9        30.18F
MT. CLEMENS    PTSUNNY   78  58  51 SE12      30.18F
PONTIAC        PTSUNNY   78  54  43 VRB7      30.18F
PORT HOPE        N/A     73  57  57 SE9       30.17F
PORT HURON     SUNNY     77  55  47 SW7       30.19F
TRI CITIES     MOSUNNY   79  53  40 SW10      30.17F
TROY           PTSUNNY   79  56  45 SE7       30.19F
SAGINAW HB     PTSUNNY   79  54  41 S9        30.17S
$$
MIZ043>046-050>051-056>058-064>065-071>073-077>080-112200-
SOUTHWEST LOWER MICHIGAN

CITY           SKY/WX    TMP DP  RH WIND       PRES   REMARKS
BATTLE CREEK   MOSUNNY   79  58  48 S9        30.18F
BENTON HARBOR  MOSUNNY   73  57  57 CALM      30.16F
BIG RAPIDS     PTSUNNY   76  58  51 SW8       30.16F
COLDWATER      MOSUNNY   79  57  47 S5        30.17F
FREMONT        FAIR      75  54  47 W6        30.17S
HOLLAND        MOSUNNY   77  58  51 W8        30.17F
GRAND RAPIDS   PTSUNNY   80  57  45 SE9G21    30.16F
IONIA          FAIR      79  53  40 S8        30.16F
KALAMAZOO      MOSUNNY   79  56  45 S6        30.17F
LUDINGTON      PTSUNNY   74  54  48 S10G16    30.15F
MARSHALL       MOSUNNY   77  57  49 S5        30.17F
MOUNT PLEASANT MOSUNNY   78  53  42 SE5       30.16F
MUSKEGON       PTSUNNY   73  52  47 SW8       30.16F
SOUTH HAVEN    MOSUNNY   74  59  57 W7        30.16F
$$
MIZ016>042-112200-
NORTHERN LOWER MICHIGAN

CITY           SKY/WX    TMP DP  RH WIND       PRES   REMARKS
ALPENA         CLOUDY    75  56  51 E8        30.14F
BEAVER ISLAND  CLOUDY    69  54  60 SW9G21    30.12F
BELLAIRE       PTSUNNY   79  57  45 SW6       30.12F
CADILLAC       MOSUNNY   78  59  51 SW10      30.15F
CHARLEVOIX     CLOUDY    76  57  53 SW7       30.15F
FRANKFORT      PTSUNNY   73  55  53 SW8G18    30.13F
GAYLORD        PTSUNNY   76  56  49 W7        30.15F
GRAYLING       PTSUNNY   75  53  46 S7        30.16F
HARBOR SPRINGS PTSUNNY   76  60  57 W3        30.11F
HOUGHTON LAKE  CLOUDY    77  55  46 S7        30.17F
MANISTEE       PTSUNNY   75  54  46 S12       30.15F
OSCODA         MOSUNNY   79  39  24 S10G18    30.17S
PELLSTON       PTSUNNY   76  58  53 SW7       30.12F
ROGERS CITY    PTSUNNY   80  60  50 SW7       30.13F
TRAVERSE CITY  PTSUNNY   80  57  45 SW6       30.10F
$$
MIZ007>008-015-112200-
EASTERN UPPER MICHIGAN

CITY           SKY/WX    TMP DP  RH WIND       PRES   REMARKS
KINROSS        CLOUDY    72  57  60 S5        30.12F
MACKINAC ISLAN CLOUDY    67  58  73 CALM      30.13F
NEWBERRY       LGT RAIN  63  58  83 S10G18    30.11S
S. S. MARIE    CLOUDY    71  53  52 S7        30.12S
$$
MIZ004>006-011>014-085-112200-
CENTRAL UPPER MICHIGAN

CITY           SKY/WX    TMP DP  RH WIND       PRES   REMARKS
MANISTIQUE     CLOUDY    58  54  87 S7        30.09F
ESCANABA       CLOUDY    70  59  68 S9        30.06S
MENOMINEE      SUNNY     79  55  44 SW17G31   30.05F
SAWYER-GWINN   CLOUDY    73  59  60 SW17G25   30.04S
$$
MIZ001>003-009>011-084-112200-
WESTERN UPPER MICHIGAN

CITY           SKY/WX    TMP DP  RH WIND       PRES   REMARKS
IRON MOUNTAIN  CLOUDY    77  59  53 S14G21    30.04S
HOUGHTON       LGT RAIN  66  62  87 NE3       29.96F
COPPER HARBOR    N/A     65  62  90 SW9       29.95F
$$

ABBREVIATIONS USED IN REMARKS
   TC - TEMPERATURE IN CELSIUS
  WCI - WIND CHILL INDEX
   HX - HEAT INDEX
  VSB - VISIBILITY



USA.gov is the U.S. government's official web portal to all federal, state and local government web resources and services.